Salisbury, MD

1:10 AM EDT on September 25, 2016 (GMT -0400)
Salisbury-Ocean City Wicomico Regional

Weather History for KSBY - June, 2013

Change the Weather History Date:

Friday, June 14, 2013

  Actual Average Record
Temperature  
Mean Temperature 68 °F 72 °F  
Max Temperature 76 °F 82 °F 97 °F (1945)
Min Temperature 60 °F 61 °F 48 °F (1979)
Degree Days  
Heating Degree Days 0 1  
Month to date heating degree days 0 18  
Since 1 June heating degree days 0 18  
Since 1 July heating degree days 3862 4440  
Cooling Degree Days 3 7  
Month to date cooling degree days 140 80  
Year to date cooling degree days 331 164  
Since 1 June cooling degree days 140 80  
Growing Degree Days 18 (Base 50)    
Moisture  
Dew Point 56 °F    
Average Humidity 61    
Maximum Humidity 78    
Minimum Humidity 43    
Precipitation  
Precipitation 0.04 in 0.13 in 1.98 in (2015)
Month to date precipitation 4.68 1.77  
Year to date precipitation 23.33 20.32  
Snow  
Snow 0.00 in 0.00 in 0.00 in (2002)
Month to date snowfall 0.0 0.0  
Since 1 July snowfall 2.8 9.3  
Snow Depth 0.00 in    
Sea Level Pressure  
Sea Level Pressure 29.76 in    
Wind  
Wind Speed 9 mph (NNW)    
Max Wind Speed 21 mph    
Max Gust Speed 26 mph    
Visibility 9 miles    
Events Rain    
T = Trace of Precipitation, MM = Missing Value Source: NWS Daily Summary

Daily Weather History Graph

Daily Weather History Graph

Search for Another Location

Airport or City:

Trip Planner

Search our weather history database for the weather conditions in past years. The results will help you decide how hot, cold, wet, or windy it might be!

Date:

Astronomy

Jun. 14, 2013 Rise Set
Actual Time 5:37 AM EDT 8:27 PM EDT
Civil Twilight 5:06 AM EDT 8:58 PM EDT
Nautical Twilight 4:26 AM EDT 9:38 PM EDT
Astronomical Twilight 3:41 AM EDT 10:23 PM EDT
Moon 11:06 AM EDT (6/14) No Moon Set
Length of Visible Light 15h 52m
Length of Day
14h 49m
Waxing Crescent, 30% of the Moon is Illuminated
Jun 14
Waxing Crescent
Jun 16
First Quarter
Jun 23
Full
Jun 30
Last Quarter
Jul 8
New

Hourly Weather History & Observations

Time (EDT) Temp. Dew Point Humidity Pressure Visibility Wind Dir Wind Speed Gust Speed Precip Events Conditions
12:54 AM 70.0 °F 61.0 °F 73% 29.55 in 10.0 mi West 8.1 mph - N/A   Overcast
1:54 AM 71.1 °F 59.0 °F 66% 29.55 in 10.0 mi West 9.2 mph - N/A   Overcast
2:54 AM 71.1 °F 59.0 °F 66% 29.57 in 10.0 mi WNW 8.1 mph 20.7 mph N/A   Overcast
3:43 AM 69.8 °F 59.0 °F 68% 29.59 in 10.0 mi NNW 15.0 mph 24.2 mph 0.00 in Rain Light Rain
3:54 AM 69.1 °F 57.9 °F 68% 29.60 in 10.0 mi NW 16.1 mph 24.2 mph 0.00 in   Overcast
4:10 AM 68.0 °F 57.2 °F 68% 29.60 in 10.0 mi NW 15.0 mph 19.6 mph N/A   Overcast
4:54 AM 66.0 °F 55.9 °F 70% 29.64 in 10.0 mi NNW 16.1 mph 23.0 mph N/A   Overcast
5:26 AM 64.4 °F 55.4 °F 73% 29.65 in 9.0 mi North 15.0 mph 23.0 mph 0.01 in Rain Light Rain
5:54 AM 62.1 °F 57.0 °F 84% 29.67 in 7.0 mi North 8.1 mph 17.3 mph 0.01 in Rain Light Rain
6:04 AM 62.6 °F 57.2 °F 82% 29.67 in 5.0 mi North 11.5 mph 18.4 mph 0.00 in Rain Light Rain
6:19 AM 60.8 °F 55.4 °F 82% 29.68 in 10.0 mi North 11.5 mph - 0.01 in   Overcast
6:33 AM 60.8 °F 55.4 °F 82% 29.69 in 10.0 mi North 9.2 mph - 0.01 in   Overcast
6:54 AM 61.0 °F 55.0 °F 81% 29.70 in 10.0 mi North 10.4 mph 17.3 mph 0.01 in   Overcast
7:37 AM 60.8 °F 55.4 °F 82% 29.72 in 3.0 mi NNW 10.4 mph - 0.00 in Rain Light Rain
7:54 AM 60.1 °F 55.9 °F 86% 29.74 in 4.0 mi NNW 10.4 mph - 0.01 in Rain Light Rain
8:10 AM 60.8 °F 55.4 °F 82% 29.74 in 10.0 mi NNW 8.1 mph - 0.00 in   Overcast
8:19 AM 60.8 °F 55.4 °F 82% 29.75 in 10.0 mi North 10.4 mph - 0.00 in Rain Light Rain
8:38 AM 60.8 °F 55.4 °F 82% 29.76 in 10.0 mi NNW 12.7 mph - 0.01 in   Overcast
8:54 AM 62.1 °F 55.9 °F 80% 29.76 in 10.0 mi NNW 13.8 mph - 0.01 in Rain Light Rain
9:11 AM 62.6 °F 55.4 °F 77% 29.76 in 10.0 mi NNW 17.3 mph 24.2 mph 0.00 in Rain Light Rain
9:54 AM 63.0 °F 55.0 °F 75% 29.78 in 10.0 mi North 13.8 mph 20.7 mph 0.00 in   Overcast
10:14 AM 64.4 °F 55.4 °F 73% 29.79 in 10.0 mi North 12.7 mph 21.9 mph N/A   Overcast
10:28 AM 66.2 °F 55.4 °F 68% 29.79 in 10.0 mi North 12.7 mph 21.9 mph N/A   Overcast
10:54 AM 66.0 °F 55.0 °F 68% 29.80 in 10.0 mi North 12.7 mph 23.0 mph N/A   Overcast
11:54 AM 64.9 °F 54.0 °F 68% 29.84 in 10.0 mi North 12.7 mph 21.9 mph N/A   Overcast
12:54 PM 66.0 °F 53.1 °F 63% 29.86 in 10.0 mi North 13.8 mph 21.9 mph N/A   Overcast
1:54 PM 71.1 °F 53.1 °F 53% 29.87 in 10.0 mi North 15.0 mph 19.6 mph N/A   Mostly Cloudy
2:54 PM 73.0 °F 52.0 °F 48% 29.88 in 10.0 mi NNW 10.4 mph - N/A   Mostly Cloudy
3:54 PM 73.0 °F 53.1 °F 49% 29.89 in 10.0 mi NNW 11.5 mph - N/A   Mostly Cloudy
4:54 PM 75.0 °F 52.0 °F 44% 29.88 in 10.0 mi NW 11.5 mph - N/A   Partly Cloudy
5:54 PM 75.0 °F 51.1 °F 43% 29.88 in 10.0 mi WNW 9.2 mph - N/A   Clear
6:54 PM 75.0 °F 52.0 °F 44% 29.88 in 10.0 mi West 8.1 mph - N/A   Clear
7:54 PM 72.0 °F 54.0 °F 53% 29.89 in 10.0 mi West 3.5 mph - N/A   Clear
8:54 PM 68.0 °F 57.0 °F 68% 29.91 in 10.0 mi WSW 8.1 mph - N/A   Clear
9:54 PM 66.9 °F 57.0 °F 70% 29.93 in 10.0 mi Calm Calm - N/A   Clear
10:54 PM 66.9 °F 57.9 °F 73% 29.95 in 10.0 mi SSW 3.5 mph - N/A   Overcast
11:54 PM 64.9 °F 57.0 °F 75% 29.96 in 10.0 mi Calm Calm - N/A   Scattered Clouds